Time,TemperatureF,DewpointF,PressureIn,WindDirection,WindDirectionDegrees,WindSpeedMPH,WindSpeedGustMPH,Humidity,HourlyPrecipIn,Conditions,Clouds,dailyrainin,SoftwareType,DateUTC
2013-05-29 00:01:00,77.2,71.6,30.11,NW,315,7.0,13.0,83,0.00,,,0.01,meteohub,2013-05-29 04:01:00,
2013-05-29 00:02:00,77.2,71.6,30.11,NW,315,7.0,13.0,83,0.00,,,0.01,meteohub,2013-05-29 04:02:00,
2013-05-29 00:07:00,77.2,71.6,30.12,NE,45,3.0,13.0,83,0.00,,,0.00,meteohub,2013-05-29 04:07:00,
2013-05-29 00:13:00,77.2,71.6,30.11,North,0,7.0,11.0,83,0.00,,,0.00,meteohub,2013-05-29 04:13:00,
2013-05-29 00:18:00,77.2,72.0,30.11,North,0,5.0,9.0,84,0.00,,,0.00,meteohub,2013-05-29 04:18:00,
2013-05-29 00:23:00,77.2,72.0,30.11,NW,315,8.0,11.0,84,0.00,,,0.00,meteohub,2013-05-29 04:23:00,
2013-05-29 00:28:00,77.0,71.8,30.11,NW,315,13.0,18.0,84,0.00,,,0.00,meteohub,2013-05-29 04:28:00,
2013-05-29 00:33:00,76.8,71.6,30.11,North,0,7.0,18.0,84,0.00,,,0.00,meteohub,2013-05-29 04:33:00,
2013-05-29 00:38:00,76.8,71.6,30.11,North,0,10.0,18.0,84,0.00,,,0.00,meteohub,2013-05-29 04:38:00,
2013-05-29 00:43:00,76.6,71.1,30.11,North,0,9.0,13.0,83,0.00,,,0.00,meteohub,2013-05-29 04:43:00,
2013-05-29 00:48:00,76.8,71.2,30.11,North,0,10.0,12.0,83,0.00,,,0.00,meteohub,2013-05-29 04:48:00,
2013-05-29 00:53:00,76.6,71.4,30.11,NE,45,11.0,12.0,84,0.00,,,0.00,meteohub,2013-05-29 04:53:00,
2013-05-29 00:58:00,76.6,71.4,30.11,NE,45,8.0,13.0,84,0.00,,,0.00,meteohub,2013-05-29 04:58:00,
2013-05-29 01:03:00,76.5,71.2,30.11,North,0,10.0,13.0,84,0.00,,,0.00,meteohub,2013-05-29 05:03:00,
2013-05-29 01:08:00,76.5,71.2,30.11,NW,315,10.0,13.0,84,0.00,,,0.00,meteohub,2013-05-29 05:08:00,
2013-05-29 01:13:00,76.6,71.4,30.11,North,0,6.0,10.0,84,0.00,,,0.00,meteohub,2013-05-29 05:13:00,
2013-05-29 01:18:00,76.5,71.2,30.11,North,0,8.0,11.0,84,0.00,,,0.00,meteohub,2013-05-29 05:18:00,
2013-05-29 01:24:00,76.5,71.2,30.10,North,0,7.0,11.0,84,0.00,,,0.00,meteohub,2013-05-29 05:24:00,
2013-05-29 01:29:00,76.5,71.2,30.10,NW,315,8.0,12.0,84,0.00,,,0.00,meteohub,2013-05-29 05:29:00,
2013-05-29 01:34:00,76.5,71.2,30.10,NW,315,7.0,13.0,84,0.00,,,0.00,meteohub,2013-05-29 05:34:00,
2013-05-29 01:39:00,76.3,71.1,30.10,NW,315,8.0,13.0,84,0.00,,,0.00,meteohub,2013-05-29 05:39:00,
2013-05-29 01:44:00,76.3,71.1,30.10,NW,315,5.0,13.0,84,0.00,,,0.00,meteohub,2013-05-29 05:44:00,
2013-05-29 01:49:00,76.3,70.7,30.10,North,0,8.0,13.0,83,0.00,,,0.00,meteohub,2013-05-29 05:49:00,
2013-05-29 01:54:00,76.3,70.7,30.10,North,0,10.0,10.0,83,0.00,,,0.00,meteohub,2013-05-29 05:54:00,
2013-05-29 01:59:00,76.3,70.7,30.10,North,0,5.0,12.0,83,0.00,,,0.00,meteohub,2013-05-29 05:59:00,
2013-05-29 02:04:00,76.1,70.5,30.09,West,270,8.0,12.0,83,0.00,,,0.00,meteohub,2013-05-29 06:04:00,
2013-05-29 02:09:00,76.1,70.5,30.10,NW,315,7.0,12.0,83,0.00,,,0.00,meteohub,2013-05-29 06:09:00,
2013-05-29 02:14:00,76.3,70.3,30.09,NW,315,2.0,10.0,82,0.00,,,0.00,meteohub,2013-05-29 06:14:00,
2013-05-29 02:19:00,76.1,70.2,30.09,SE,135,4.0,11.0,82,0.00,,,0.00,meteohub,2013-05-29 06:19:00,
2013-05-29 02:24:00,76.3,70.0,30.09,NE,45,8.0,11.0,81,0.00,,,0.00,meteohub,2013-05-29 06:24:00,
2013-05-29 02:29:00,76.3,70.3,30.09,NNE,23,7.0,11.0,82,0.00,,,0.00,meteohub,2013-05-29 06:29:00,
2013-05-29 02:35:00,76.1,70.2,30.09,NW,315,8.0,9.0,82,0.00,,,0.00,meteohub,2013-05-29 06:35:00,
2013-05-29 02:40:00,75.9,70.3,30.09,West,270,4.0,9.0,83,0.00,,,0.00,meteohub,2013-05-29 06:40:00,
2013-05-29 02:45:00,75.7,70.5,30.09,WNW,293,8.0,11.0,84,0.00,,,0.00,meteohub,2013-05-29 06:45:00,
2013-05-29 02:50:00,75.7,70.5,30.09,NW,315,5.0,11.0,84,0.00,,,0.00,meteohub,2013-05-29 06:50:00,
2013-05-29 02:55:00,75.7,70.5,30.09,East,90,4.0,11.0,84,0.00,,,0.00,meteohub,2013-05-29 06:55:00,
2013-05-29 03:00:00,75.7,70.9,30.09,North,0,6.0,10.0,85,0.00,,,0.00,meteohub,2013-05-29 07:00:00,
2013-05-29 03:05:00,75.7,70.9,30.09,North,0,6.0,8.0,85,0.00,,,0.00,meteohub,2013-05-29 07:05:00,
2013-05-29 03:10:00,75.7,70.9,30.08,NW,315,6.0,8.0,85,0.00,,,0.00,meteohub,2013-05-29 07:10:00,
2013-05-29 03:15:00,75.7,70.9,30.09,North,0,6.0,8.0,85,0.00,,,0.00,meteohub,2013-05-29 07:15:00,
2013-05-29 03:20:00,75.6,70.7,30.08,North,0,6.0,8.0,85,0.00,,,0.00,meteohub,2013-05-29 07:20:00,
2013-05-29 03:26:00,75.6,70.7,30.08,West,270,2.0,8.0,85,0.00,,,0.00,meteohub,2013-05-29 07:26:00,
2013-05-29 03:31:00,75.4,70.9,30.08,NE,45,4.0,8.0,86,0.00,,,0.00,meteohub,2013-05-29 07:31:00,
2013-05-29 03:36:00,75.4,70.9,30.08,North,0,8.0,8.0,86,0.00,,,0.00,meteohub,2013-05-29 07:36:00,
2013-05-29 03:41:00,75.4,71.2,30.07,NW,315,5.0,11.0,87,0.00,,,0.00,meteohub,2013-05-29 07:41:00,
2013-05-29 03:46:00,75.4,71.2,30.07,North,0,8.0,11.0,87,0.00,,,0.00,meteohub,2013-05-29 07:46:00,
2013-05-29 03:51:00,75.4,71.2,30.07,NW,315,11.0,11.0,87,0.00,,,0.00,meteohub,2013-05-29 07:51:00,
2013-05-29 03:56:00,75.4,71.2,30.07,NW,315,8.0,12.0,87,0.00,,,0.00,meteohub,2013-05-29 07:56:00,
2013-05-29 04:01:00,75.2,71.4,30.07,NW,315,8.0,12.0,88,0.00,,,0.00,meteohub,2013-05-29 08:01:00,
2013-05-29 04:06:00,75.2,71.4,30.07,NW,315,8.0,11.0,88,0.00,,,0.00,meteohub,2013-05-29 08:06:00,
2013-05-29 04:11:00,75.0,71.6,30.07,North,0,8.0,10.0,89,0.00,,,0.00,meteohub,2013-05-29 08:11:00,
2013-05-29 04:17:00,75.0,71.6,30.07,North,0,10.0,10.0,89,0.00,,,0.00,meteohub,2013-05-29 08:17:00,
2013-05-29 04:22:00,75.0,71.6,30.06,NE,45,7.0,11.0,89,0.00,,,0.00,meteohub,2013-05-29 08:22:00,
2013-05-29 04:27:00,74.8,71.8,30.06,North,0,4.0,11.0,90,0.00,,,0.00,meteohub,2013-05-29 08:27:00,
2013-05-29 04:32:00,74.8,71.8,30.06,North,0,5.0,11.0,90,0.00,,,0.00,meteohub,2013-05-29 08:32:00,
2013-05-29 04:37:00,75.0,72.0,30.06,North,0,6.0,11.0,90,0.00,,,0.00,meteohub,2013-05-29 08:37:00,
2013-05-29 04:42:00,74.8,71.8,30.06,North,0,8.0,11.0,90,0.00,,,0.00,meteohub,2013-05-29 08:42:00,
2013-05-29 04:47:00,74.8,71.8,30.06,NW,315,7.0,12.0,90,0.00,,,0.00,meteohub,2013-05-29 08:47:00,
2013-05-29 04:52:00,74.8,71.8,30.06,NE,45,8.0,12.0,90,0.00,,,0.00,meteohub,2013-05-29 08:52:00,
2013-05-29 04:57:00,74.8,71.4,30.06,NW,315,5.0,9.0,89,0.00,,,0.00,meteohub,2013-05-29 08:57:00,
2013-05-29 05:02:00,74.8,71.4,30.06,North,0,8.0,9.0,89,0.00,,,0.00,meteohub,2013-05-29 09:02:00,
2013-05-29 05:07:00,74.8,71.4,30.06,North,0,8.0,8.0,89,0.00,,,0.00,meteohub,2013-05-29 09:07:00,
2013-05-29 05:12:00,74.8,71.4,30.06,NE,45,4.0,8.0,89,0.00,,,0.00,meteohub,2013-05-29 09:12:00,
2013-05-29 05:17:00,74.8,71.4,30.06,NE,45,6.0,8.0,89,0.00,,,0.00,meteohub,2013-05-29 09:17:00,
2013-05-29 05:22:00,74.8,71.4,30.06,ENE,68,7.0,11.0,89,0.00,,,0.00,meteohub,2013-05-29 09:22:00,
2013-05-29 05:27:00,74.7,71.2,30.07,North,0,7.0,11.0,89,0.00,,,0.00,meteohub,2013-05-29 09:27:00,
2013-05-29 05:32:00,74.7,71.2,30.06,NW,315,4.0,11.0,89,0.00,,,0.00,meteohub,2013-05-29 09:32:00,
2013-05-29 05:37:00,74.8,71.4,30.06,NNE,23,9.0,11.0,89,0.00,,,0.00,meteohub,2013-05-29 09:37:00,
2013-05-29 05:42:00,74.7,71.2,30.06,NE,45,2.0,11.0,89,0.00,,,0.00,meteohub,2013-05-29 09:42:00,
2013-05-29 05:47:00,74.7,71.2,30.06,NW,315,5.0,11.0,89,0.00,,,0.00,meteohub,2013-05-29 09:47:00,
2013-05-29 05:52:00,74.7,71.2,30.06,SW,225,3.0,9.0,89,0.00,,,0.00,meteohub,2013-05-29 09:52:00,
2013-05-29 05:57:00,74.7,71.2,30.06,SE,135,2.0,8.0,89,0.00,,,0.00,meteohub,2013-05-29 09:57:00,
2013-05-29 06:02:00,74.7,71.6,30.06,North,0,4.0,8.0,90,0.00,,,0.00,meteohub,2013-05-29 10:02:00,
2013-05-29 06:07:00,74.7,71.2,30.06,NE,45,4.0,8.0,89,0.00,,,0.00,meteohub,2013-05-29 10:07:00,
2013-05-29 06:12:00,74.7,71.2,30.06,East,90,6.0,8.0,89,0.00,,,0.00,meteohub,2013-05-29 10:12:00,
2013-05-29 06:17:00,74.7,71.6,30.07,North,0,7.0,8.0,90,0.00,,,0.00,meteohub,2013-05-29 10:17:00,
2013-05-29 06:22:00,74.7,71.6,30.07,North,0,7.0,8.0,90,0.00,,,0.00,meteohub,2013-05-29 10:22:00,
2013-05-29 06:27:00,74.7,71.6,30.07,North,0,8.0,8.0,90,0.00,,,0.00,meteohub,2013-05-29 10:27:00,
2013-05-29 06:32:00,74.7,71.8,30.07,East,90,4.0,8.0,91,0.00,,,0.00,meteohub,2013-05-29 10:32:00,
2013-05-29 06:37:00,74.8,72.0,30.07,NE,45,4.0,8.0,91,0.00,,,0.00,meteohub,2013-05-29 10:37:00,
2013-05-29 06:42:00,74.8,72.0,30.07,North,0,9.0,11.0,91,0.00,,,0.00,meteohub,2013-05-29 10:42:00,
2013-05-29 06:47:00,75.0,72.1,30.07,North,0,6.0,11.0,91,0.00,,,0.00,meteohub,2013-05-29 10:47:00,
2013-05-29 06:52:00,75.2,72.3,30.08,NE,45,3.0,10.0,91,0.00,,,0.00,meteohub,2013-05-29 10:52:00,
2013-05-29 06:57:00,75.2,72.3,30.08,North,0,3.0,10.0,91,0.00,,,0.00,meteohub,2013-05-29 10:57:00,
2013-05-29 07:02:00,75.2,72.3,30.09,North,0,4.0,8.0,91,0.00,,,0.00,meteohub,2013-05-29 11:02:00,
2013-05-29 07:07:00,75.2,72.3,30.09,North,0,4.0,6.0,91,0.00,,,0.00,meteohub,2013-05-29 11:07:00,
2013-05-29 07:12:00,75.4,72.5,30.09,West,270,4.0,8.0,91,0.00,,,0.00,meteohub,2013-05-29 11:12:00,
2013-05-29 07:17:00,75.6,72.7,30.09,North,0,6.0,8.0,91,0.00,,,0.00,meteohub,2013-05-29 11:17:00,
2013-05-29 07:22:00,75.9,73.0,30.09,NE,45,6.0,8.0,91,0.00,,,0.00,meteohub,2013-05-29 11:22:00,
2013-05-29 07:27:00,76.3,73.0,30.09,NNW,338,4.0,8.0,90,0.00,,,0.00,meteohub,2013-05-29 11:27:00,
2013-05-29 07:32:00,77.0,73.2,30.09,North,0,6.0,8.0,88,0.00,,,0.00,meteohub,2013-05-29 11:32:00,
2013-05-29 07:37:00,77.5,73.0,30.09,NE,45,4.0,8.0,86,0.00,,,0.00,meteohub,2013-05-29 11:37:00,
2013-05-29 07:42:00,77.4,72.5,30.10,NW,315,4.0,8.0,85,0.00,,,0.00,meteohub,2013-05-29 11:42:00,
2013-05-29 07:47:00,77.0,72.5,30.10,North,0,6.0,8.0,86,0.00,,,0.00,meteohub,2013-05-29 11:47:00,
2013-05-29 07:52:00,77.4,73.2,30.10,North,0,11.0,11.0,87,0.00,,,0.00,meteohub,2013-05-29 11:52:00,
2013-05-29 07:57:00,77.4,72.5,30.10,North,0,11.0,11.0,85,0.00,,,0.00,meteohub,2013-05-29 11:57:00,
2013-05-29 08:02:00,77.4,72.5,30.11,NE,45,8.0,13.0,85,0.00,,,0.00,meteohub,2013-05-29 12:02:00,
2013-05-29 08:08:00,77.9,72.7,30.11,NE,45,7.0,14.0,84,0.00,,,0.00,meteohub,2013-05-29 12:08:00,
2013-05-29 08:13:00,77.7,72.5,30.11,NW,315,14.0,14.0,84,0.00,,,0.00,meteohub,2013-05-29 12:13:00,
2013-05-29 08:18:00,77.4,72.5,30.11,North,0,10.0,14.0,85,0.00,,,0.00,meteohub,2013-05-29 12:18:00,
2013-05-29 08:23:00,78.1,72.1,30.11,North,0,11.0,14.0,82,0.00,,,0.00,meteohub,2013-05-29 12:23:00,
2013-05-29 08:28:00,78.4,71.8,30.11,NE,45,8.0,14.0,80,0.00,,,0.00,meteohub,2013-05-29 12:28:00,
2013-05-29 08:33:00,79.0,72.3,30.11,North,0,8.0,13.0,80,0.00,,,0.00,meteohub,2013-05-29 12:33:00,
2013-05-29 08:38:00,79.9,72.0,30.11,North,0,9.0,14.0,77,0.00,,,0.00,meteohub,2013-05-29 12:38:00,
2013-05-29 08:43:00,80.1,71.8,30.11,North,0,6.0,14.0,76,0.00,,,0.00,meteohub,2013-05-29 12:43:00,
2013-05-29 08:48:00,80.4,71.8,30.11,North,0,7.0,14.0,75,0.00,,,0.00,meteohub,2013-05-29 12:48:00,
2013-05-29 08:53:00,80.4,71.4,30.11,NW,315,8.0,11.0,74,0.00,,,0.00,meteohub,2013-05-29 12:53:00,
2013-05-29 08:58:00,80.8,71.8,30.11,North,0,11.0,13.0,74,0.00,,,0.00,meteohub,2013-05-29 12:58:00,
2013-05-29 09:03:00,81.3,71.4,30.11,North,0,11.0,13.0,72,0.00,,,0.00,meteohub,2013-05-29 13:03:00,
2013-05-29 09:09:00,81.3,71.8,30.10,NW,315,7.0,13.0,73,0.00,,,0.00,meteohub,2013-05-29 13:09:00,
2013-05-29 09:14:00,81.7,71.8,30.11,North,0,8.0,11.0,72,0.00,,,0.00,meteohub,2013-05-29 13:14:00,
2013-05-29 09:19:00,81.5,71.6,30.10,WNW,293,11.0,11.0,72,0.00,,,0.00,meteohub,2013-05-29 13:19:00,
2013-05-29 09:24:00,82.0,72.1,30.11,WNW,293,7.0,11.0,72,0.00,,,0.00,meteohub,2013-05-29 13:24:00,
2013-05-29 09:29:00,82.2,72.0,30.10,North,0,4.0,11.0,71,0.00,,,0.00,meteohub,2013-05-29 13:29:00,
2013-05-29 09:34:00,82.4,71.6,30.10,North,0,9.0,11.0,70,0.00,,,0.00,meteohub,2013-05-29 13:34:00,
2013-05-29 09:39:00,82.2,71.4,30.10,North,0,8.0,13.0,70,0.00,,,0.00,meteohub,2013-05-29 13:39:00,
2013-05-29 09:44:00,82.8,72.0,30.10,NE,45,5.0,13.0,70,0.00,,,0.00,meteohub,2013-05-29 13:44:00,
2013-05-29 09:49:00,83.1,71.4,30.10,North,0,8.0,13.0,68,0.00,,,0.00,meteohub,2013-05-29 13:49:00,
2013-05-29 09:54:00,82.9,71.2,30.10,North,0,8.0,11.0,68,0.00,,,0.00,meteohub,2013-05-29 13:54:00,
2013-05-29 09:59:00,84.0,72.0,30.10,North,0,6.0,13.0,67,0.00,,,0.00,meteohub,2013-05-29 13:59:00,
2013-05-29 10:04:00,84.2,70.7,30.10,North,0,6.0,13.0,64,0.00,,,0.00,meteohub,2013-05-29 14:04:00,
2013-05-29 10:09:00,83.3,70.3,30.10,SSW,203,9.0,13.0,65,0.00,,,0.00,meteohub,2013-05-29 14:09:00,
2013-05-29 10:14:00,83.5,70.0,30.10,North,0,14.0,15.0,64,0.00,,,0.00,meteohub,2013-05-29 14:14:00,
2013-05-29 10:20:00,83.1,69.6,30.10,North,0,11.0,15.0,64,0.00,,,0.00,meteohub,2013-05-29 14:20:00,
2013-05-29 10:25:00,84.0,70.0,30.10,NW,315,11.0,15.0,63,0.00,,,0.00,meteohub,2013-05-29 14:25:00,
2013-05-29 10:30:00,83.7,70.2,30.10,NW,315,14.0,15.0,64,0.00,,,0.00,meteohub,2013-05-29 14:30:00,
2013-05-29 10:35:00,83.8,70.9,30.10,North,0,15.0,15.0,65,0.00,,,0.00,meteohub,2013-05-29 14:35:00,
2013-05-29 10:40:00,84.0,71.1,30.09,North,0,13.0,15.0,65,0.00,,,0.00,meteohub,2013-05-29 14:40:00,
2013-05-29 10:45:00,84.9,72.3,30.10,West,270,8.0,15.0,66,0.00,,,0.00,meteohub,2013-05-29 14:45:00,
2013-05-29 10:50:00,85.3,71.2,30.09,NW,315,6.0,15.0,63,0.00,,,0.00,meteohub,2013-05-29 14:50:00,
2013-05-29 10:55:00,85.8,70.9,30.10,North,0,9.0,15.0,61,0.00,,,0.00,meteohub,2013-05-29 14:55:00,
2013-05-29 11:00:00,85.1,71.1,30.11,NE,45,8.0,11.0,63,0.00,,,0.00,meteohub,2013-05-29 15:00:00,
2013-05-29 11:05:00,84.7,71.2,30.10,NW,315,12.0,13.0,64,0.00,,,0.00,meteohub,2013-05-29 15:05:00,
2013-05-29 11:10:00,84.9,71.4,30.10,North,0,11.0,14.0,64,0.00,,,0.00,meteohub,2013-05-29 15:10:00,
2013-05-29 11:15:00,85.3,71.2,30.10,NW,315,13.0,14.0,63,0.00,,,0.00,meteohub,2013-05-29 15:15:00,
2013-05-29 11:21:00,85.3,71.8,30.10,NE,45,8.0,15.0,64,0.00,,,0.00,meteohub,2013-05-29 15:21:00,
2013-05-29 11:26:00,85.3,71.8,30.10,NE,45,8.0,15.0,64,0.00,,,0.00,meteohub,2013-05-29 15:26:00,
2013-05-29 11:31:00,85.1,70.2,30.10,NE,45,13.0,17.0,61,0.00,,,0.00,meteohub,2013-05-29 15:31:00,
2013-05-29 11:36:00,85.3,70.3,30.10,NW,315,10.0,17.0,61,0.00,,,0.00,meteohub,2013-05-29 15:36:00,
2013-05-29 11:41:00,85.6,71.6,30.09,NE,45,7.0,17.0,63,0.00,,,0.00,meteohub,2013-05-29 15:41:00,
2013-05-29 11:46:00,86.4,71.2,30.09,North,0,4.0,17.0,61,0.00,,,0.00,meteohub,2013-05-29 15:46:00,
2013-05-29 11:51:00,86.9,70.3,30.09,NW,315,8.0,15.0,58,0.00,,,0.00,meteohub,2013-05-29 15:51:00,
2013-05-29 11:56:00,86.7,70.2,30.09,NW,315,14.0,14.0,58,0.00,,,0.00,meteohub,2013-05-29 15:56:00,
2013-05-29 12:01:00,86.2,70.7,30.09,NW,315,11.0,15.0,60,0.00,,,0.00,meteohub,2013-05-29 16:01:00,
2013-05-29 12:06:00,86.2,70.7,30.09,NW,315,11.0,15.0,60,0.00,,,0.00,meteohub,2013-05-29 16:06:00,
2013-05-29 12:11:00,86.5,70.5,30.09,NW,315,14.0,15.0,59,0.00,,,0.00,meteohub,2013-05-29 16:11:00,
2013-05-29 12:16:00,86.5,71.1,30.09,NE,45,8.0,17.0,60,0.00,,,0.00,meteohub,2013-05-29 16:16:00,
2013-05-29 12:21:00,86.9,70.3,30.09,West,270,13.0,17.0,58,0.00,,,0.00,meteohub,2013-05-29 16:21:00,
2013-05-29 12:27:00,86.5,70.0,30.09,NW,315,16.0,17.0,58,0.00,,,0.00,meteohub,2013-05-29 16:27:00,
2013-05-29 12:32:00,86.5,70.0,30.09,North,0,11.0,17.0,58,0.00,,,0.00,meteohub,2013-05-29 16:32:00,
2013-05-29 12:37:00,86.9,69.3,30.09,NW,315,9.0,17.0,56,0.00,,,0.00,meteohub,2013-05-29 16:37:00,
2013-05-29 12:42:00,87.1,69.4,30.09,NW,315,6.0,17.0,56,0.00,,,0.00,meteohub,2013-05-29 16:42:00,
2013-05-29 12:47:00,85.1,72.0,30.09,North,0,10.0,17.0,65,0.00,,,0.00,meteohub,2013-05-29 16:47:00,
2013-05-29 12:52:00,82.2,71.4,30.09,NE,45,6.0,17.0,70,0.00,,,0.00,meteohub,2013-05-29 16:52:00,
2013-05-29 12:57:00,81.5,72.9,30.09,NW,315,5.0,17.0,75,0.00,,,0.00,meteohub,2013-05-29 16:57:00,
2013-05-29 13:02:00,81.7,72.1,30.09,NE,45,5.0,13.0,73,0.00,,,0.00,meteohub,2013-05-29 17:02:00,
2013-05-29 13:07:00,81.7,72.1,30.09,NE,45,5.0,13.0,73,0.00,,,0.00,meteohub,2013-05-29 17:07:00,
2013-05-29 13:12:00,84.2,71.6,30.09,NW,315,14.0,14.0,66,0.00,,,0.00,meteohub,2013-05-29 17:12:00,
2013-05-29 13:17:00,85.6,70.7,30.08,North,0,8.0,14.0,61,0.00,,,0.00,meteohub,2013-05-29 17:17:00,
2013-05-29 13:22:00,85.8,70.3,30.08,North,0,6.0,15.0,60,0.00,,,0.00,meteohub,2013-05-29 17:22:00,
2013-05-29 13:27:00,86.5,70.5,30.08,NE,45,10.0,15.0,59,0.00,,,0.00,meteohub,2013-05-29 17:27:00,
2013-05-29 13:32:00,87.1,69.4,30.08,North,0,8.0,15.0,56,0.00,,,0.00,meteohub,2013-05-29 17:32:00,
2013-05-29 13:37:00,87.3,70.2,30.07,NW,315,11.0,12.0,57,0.00,,,0.00,meteohub,2013-05-29 17:37:00,
2013-05-29 13:42:00,87.6,68.4,30.07,North,0,11.0,12.0,53,0.00,,,0.00,meteohub,2013-05-29 17:42:00,
2013-05-29 13:47:00,88.0,68.2,30.08,West,270,10.0,12.0,52,0.00,,,0.00,meteohub,2013-05-29 17:47:00,
2013-05-29 13:52:00,87.8,68.0,30.08,NE,45,15.0,17.0,52,0.00,,,0.00,meteohub,2013-05-29 17:52:00,
2013-05-29 13:57:00,87.6,68.4,30.08,NW,315,10.0,17.0,53,0.00,,,0.00,meteohub,2013-05-29 17:57:00,
2013-05-29 14:02:00,87.6,68.4,30.07,NW,315,10.0,15.0,53,0.00,,,0.00,meteohub,2013-05-29 18:02:00,
2013-05-29 14:07:00,87.6,68.4,30.07,NW,315,10.0,16.0,53,0.00,,,0.00,meteohub,2013-05-29 18:07:00,
2013-05-29 14:12:00,86.7,69.1,30.08,NW,315,11.0,16.0,56,0.00,,,0.00,meteohub,2013-05-29 18:12:00,
2013-05-29 14:17:00,87.4,70.3,30.07,North,0,7.0,17.0,57,0.00,,,0.00,meteohub,2013-05-29 18:17:00,
2013-05-29 14:22:00,88.5,69.3,30.07,NW,315,11.0,17.0,53,0.00,,,0.00,meteohub,2013-05-29 18:22:00,
2013-05-29 14:27:00,88.7,68.7,30.06,North,0,15.0,17.0,52,0.00,,,0.00,meteohub,2013-05-29 18:27:00,
2013-05-29 14:32:00,86.5,68.9,30.06,WNW,293,16.0,16.0,56,0.00,,,0.00,meteohub,2013-05-29 18:32:00,
2013-05-29 14:37:00,85.3,69.3,30.06,NW,315,17.0,19.0,59,0.00,,,0.00,meteohub,2013-05-29 18:37:00,
2013-05-29 14:42:00,86.7,70.2,30.06,NE,45,11.0,19.0,58,0.00,,,0.00,meteohub,2013-05-29 18:42:00,
2013-05-29 14:47:00,87.6,70.5,30.06,North,0,10.0,19.0,57,0.00,,,0.00,meteohub,2013-05-29 18:47:00,
2013-05-29 14:52:00,87.8,70.2,30.06,NE,45,8.0,17.0,56,0.00,,,0.00,meteohub,2013-05-29 18:52:00,
2013-05-29 14:57:00,87.8,70.2,30.06,WNW,293,18.0,18.0,56,0.00,,,0.00,meteohub,2013-05-29 18:57:00,
2013-05-29 15:02:00,86.9,70.3,30.06,North,0,15.0,18.0,58,0.00,,,0.00,meteohub,2013-05-29 19:02:00,
2013-05-29 15:07:00,86.9,70.3,30.07,North,0,15.0,18.0,58,0.00,,,0.00,meteohub,2013-05-29 19:07:00,
2013-05-29 15:12:00,82.2,68.4,30.07,West,270,9.0,18.0,63,0.00,,,0.00,meteohub,2013-05-29 19:12:00,
2013-05-29 15:17:00,81.0,68.0,30.06,NW,315,14.0,16.0,65,0.00,,,0.00,meteohub,2013-05-29 19:17:00,
2013-05-29 15:22:00,81.1,69.1,30.06,North,0,11.0,18.0,67,0.00,,,0.00,meteohub,2013-05-29 19:22:00,
2013-05-29 15:27:00,81.7,67.8,30.06,North,0,13.0,18.0,63,0.00,,,0.00,meteohub,2013-05-29 19:27:00,
2013-05-29 15:32:00,82.6,69.6,30.06,East,90,10.0,18.0,65,0.00,,,0.00,meteohub,2013-05-29 19:32:00,
2013-05-29 15:37:00,83.1,69.3,30.06,East,90,5.0,18.0,63,0.00,,,0.00,meteohub,2013-05-29 19:37:00,
2013-05-29 15:42:00,84.0,67.6,30.06,WNW,293,15.0,15.0,58,0.00,,,0.00,meteohub,2013-05-29 19:42:00,
2013-05-29 15:47:00,83.5,68.5,30.05,NE,45,8.0,15.0,61,0.00,,,0.00,meteohub,2013-05-29 19:47:00,
2013-05-29 15:52:00,83.8,67.5,30.06,North,0,14.0,15.0,58,0.00,,,0.00,meteohub,2013-05-29 19:52:00,
2013-05-29 15:57:00,84.2,67.3,30.06,North,0,11.0,15.0,57,0.00,,,0.00,meteohub,2013-05-29 19:57:00,
2013-05-29 16:02:00,84.4,68.0,30.05,NW,315,5.0,15.0,58,0.00,,,0.00,meteohub,2013-05-29 20:02:00,
2013-05-29 16:07:00,84.4,68.0,30.04,NW,315,5.0,15.0,58,0.00,,,0.00,meteohub,2013-05-29 20:07:00,
2013-05-29 16:12:00,83.1,67.3,30.05,NW,315,6.0,15.0,59,0.00,,,0.00,meteohub,2013-05-29 20:12:00,
2013-05-29 16:17:00,83.3,67.5,30.04,West,270,8.0,16.0,59,0.00,,,0.00,meteohub,2013-05-29 20:17:00,
2013-05-29 16:22:00,83.1,67.3,30.04,NE,45,8.0,17.0,59,0.00,,,0.00,meteohub,2013-05-29 20:22:00,
2013-05-29 16:27:00,82.9,67.1,30.04,East,90,15.0,17.0,59,0.00,,,0.00,meteohub,2013-05-29 20:27:00,
2013-05-29 16:32:00,83.1,67.8,30.04,NW,315,11.0,17.0,60,0.00,,,0.00,meteohub,2013-05-29 20:32:00,
2013-05-29 16:37:00,83.5,67.6,30.04,NW,315,11.0,15.0,59,0.00,,,0.00,meteohub,2013-05-29 20:37:00,
2013-05-29 16:42:00,83.8,66.9,30.03,NE,45,9.0,17.0,57,0.00,,,0.00,meteohub,2013-05-29 20:42:00,
2013-05-29 16:47:00,85.3,67.8,30.03,NE,45,7.0,17.0,56,0.00,,,0.00,meteohub,2013-05-29 20:47:00,
2013-05-29 16:52:00,85.8,66.7,30.03,NE,45,11.0,17.0,53,0.00,,,0.00,meteohub,2013-05-29 20:52:00,
2013-05-29 16:57:00,84.9,66.9,30.03,WNW,293,15.0,17.0,55,0.00,,,0.00,meteohub,2013-05-29 20:57:00,
2013-05-29 17:02:00,84.7,67.3,30.03,North,0,11.0,17.0,56,0.00,,,0.00,meteohub,2013-05-29 21:02:00,
2013-05-29 17:07:00,84.7,67.3,30.04,North,0,11.0,17.0,56,0.00,,,0.00,meteohub,2013-05-29 21:07:00,
2013-05-29 17:12:00,86.4,67.3,30.04,North,0,12.0,15.0,53,0.00,,,0.00,meteohub,2013-05-29 21:12:00,
2013-05-29 17:17:00,86.7,67.5,30.04,NW,315,8.0,12.0,53,0.00,,,0.00,meteohub,2013-05-29 21:17:00,
2013-05-29 17:22:00,86.9,66.6,30.04,NE,45,9.0,18.0,51,0.00,,,0.00,meteohub,2013-05-29 21:22:00,
2013-05-29 17:28:00,86.2,67.1,30.05,NE,45,16.0,18.0,53,0.00,,,0.00,meteohub,2013-05-29 21:28:00,
2013-05-29 17:33:00,86.2,67.6,30.04,North,0,15.0,18.0,54,0.00,,,0.00,meteohub,2013-05-29 21:33:00,
2013-05-29 17:38:00,85.6,67.1,30.04,North,0,10.0,18.0,54,0.00,,,0.00,meteohub,2013-05-29 21:38:00,
2013-05-29 17:43:00,84.9,68.0,30.05,NW,315,13.0,18.0,57,0.00,,,0.00,meteohub,2013-05-29 21:43:00,
2013-05-29 17:48:00,84.0,64.6,30.06,WNW,293,17.0,18.0,52,0.00,,,0.00,meteohub,2013-05-29 21:48:00,
2013-05-29 17:53:00,82.6,65.3,30.06,North,0,8.0,17.0,56,0.00,,,0.00,meteohub,2013-05-29 21:53:00,
2013-05-29 17:58:00,82.2,66.0,30.06,North,0,11.0,17.0,58,0.00,,,0.00,meteohub,2013-05-29 21:58:00,
2013-05-29 18:03:00,82.6,65.8,30.06,North,0,9.0,17.0,57,0.00,,,0.00,meteohub,2013-05-29 22:03:00,
2013-05-29 18:08:00,83.7,64.8,30.06,North,0,6.0,17.0,53,0.00,,,0.00,meteohub,2013-05-29 22:08:00,
2013-05-29 18:13:00,84.0,63.3,30.05,NW,315,8.0,13.0,50,0.00,,,0.00,meteohub,2013-05-29 22:13:00,
2013-05-29 18:18:00,83.8,63.1,30.05,NE,45,4.0,13.0,50,0.00,,,0.00,meteohub,2013-05-29 22:18:00,
2013-05-29 18:23:00,83.8,64.9,30.05,NW,315,5.0,13.0,53,0.00,,,0.00,meteohub,2013-05-29 22:23:00,
2013-05-29 18:29:00,83.7,64.2,30.04,WNW,293,11.0,12.0,52,0.00,,,0.00,meteohub,2013-05-29 22:29:00,
2013-05-29 18:34:00,83.3,64.9,30.05,NW,315,13.0,14.0,54,0.00,,,0.00,meteohub,2013-05-29 22:34:00,
2013-05-29 18:39:00,82.9,65.1,30.05,NE,45,10.0,16.0,55,0.00,,,0.00,meteohub,2013-05-29 22:39:00,
2013-05-29 18:44:00,82.9,65.1,30.04,West,270,5.0,16.0,55,0.00,,,0.00,meteohub,2013-05-29 22:44:00,
2013-05-29 18:49:00,83.3,65.5,30.04,North,0,7.0,17.0,55,0.00,,,0.00,meteohub,2013-05-29 22:49:00,
2013-05-29 18:54:00,83.1,65.8,30.04,NW,315,4.0,17.0,56,0.00,,,0.00,meteohub,2013-05-29 22:54:00,
2013-05-29 18:59:00,82.8,64.4,30.04,NE,45,15.0,15.0,54,0.00,,,0.00,meteohub,2013-05-29 22:59:00,
2013-05-29 19:04:00,82.8,64.9,30.05,SW,225,6.0,16.0,55,0.00,,,0.00,meteohub,2013-05-29 23:04:00,
2013-05-29 19:09:00,81.7,65.5,30.05,NW,315,10.0,16.0,58,0.00,,,0.00,meteohub,2013-05-29 23:09:00,
2013-05-29 19:14:00,81.3,65.7,30.05,North,0,5.0,16.0,59,0.00,,,0.00,meteohub,2013-05-29 23:14:00,
2013-05-29 19:20:00,81.1,65.5,30.05,North,0,14.0,15.0,59,0.00,,,0.00,meteohub,2013-05-29 23:20:00,
2013-05-29 19:25:00,81.1,65.5,30.05,North,0,8.0,17.0,59,0.00,,,0.00,meteohub,2013-05-29 23:25:00,
2013-05-29 19:30:00,81.0,65.3,30.05,NW,315,11.0,17.0,59,0.00,,,0.00,meteohub,2013-05-29 23:30:00,
2013-05-29 19:35:00,80.8,64.6,30.05,North,0,13.0,18.0,58,0.00,,,0.00,meteohub,2013-05-29 23:35:00,
2013-05-29 19:40:00,80.8,64.6,30.05,NW,315,7.0,18.0,58,0.00,,,0.00,meteohub,2013-05-29 23:40:00,
2013-05-29 19:45:00,80.8,65.1,30.04,SW,225,6.0,18.0,59,0.00,,,0.00,meteohub,2013-05-29 23:45:00,
2013-05-29 19:50:00,80.6,65.5,30.05,North,0,11.0,17.0,60,0.00,,,0.00,meteohub,2013-05-29 23:50:00,
2013-05-29 19:55:00,80.6,65.5,30.05,North,0,8.0,14.0,60,0.00,,,0.00,meteohub,2013-05-29 23:55:00,
2013-05-29 20:00:00,80.6,65.8,30.05,West,270,14.0,14.0,61,0.00,,,0.00,meteohub,2013-05-30 00:00:00,
2013-05-29 20:05:00,80.6,65.8,30.05,East,90,8.0,14.0,61,0.00,,,0.00,meteohub,2013-05-30 00:05:00,
2013-05-29 20:11:00,80.4,65.7,30.05,North,0,8.0,14.0,61,0.00,,,0.00,meteohub,2013-05-30 00:11:00,
2013-05-29 20:16:00,80.4,65.7,30.05,North,0,7.0,14.0,61,0.00,,,0.00,meteohub,2013-05-30 00:16:00,
2013-05-29 20:21:00,80.4,66.2,30.05,North,0,8.0,11.0,62,0.00,,,0.00,meteohub,2013-05-30 00:21:00,
2013-05-29 20:26:00,80.2,66.6,30.05,North,0,5.0,11.0,63,0.00,,,0.00,meteohub,2013-05-30 00:26:00,
2013-05-29 20:31:00,80.2,66.9,30.05,West,270,8.0,11.0,64,0.00,,,0.00,meteohub,2013-05-30 00:31:00,
2013-05-29 20:36:00,80.1,67.3,30.05,North,0,11.0,15.0,65,0.00,,,0.00,meteohub,2013-05-30 00:36:00,
2013-05-29 20:41:00,80.1,67.3,30.05,North,0,11.0,15.0,65,0.00,,,0.00,meteohub,2013-05-30 00:41:00,
2013-05-29 20:46:00,80.1,67.6,30.05,East,90,11.0,15.0,66,0.00,,,0.00,meteohub,2013-05-30 00:46:00,
2013-05-29 20:51:00,80.1,68.2,30.06,West,270,5.0,11.0,67,0.00,,,0.00,meteohub,2013-05-30 00:51:00,
2013-05-29 20:56:00,79.9,67.1,30.06,NW,315,8.0,11.0,65,0.00,,,0.00,meteohub,2013-05-30 00:56:00,
2013-05-29 21:02:00,79.9,67.1,30.06,North,0,7.0,13.0,65,0.00,,,0.00,meteohub,2013-05-30 01:02:00,
2013-05-29 21:07:00,79.9,67.1,30.06,North,0,6.0,13.0,65,0.00,,,0.00,meteohub,2013-05-30 01:07:00,
2013-05-29 21:12:00,79.9,67.5,30.07,North,0,8.0,11.0,66,0.00,,,0.00,meteohub,2013-05-30 01:12:00,
2013-05-29 21:17:00,79.9,67.5,30.07,South,180,4.0,14.0,66,0.00,,,0.00,meteohub,2013-05-30 01:17:00,
2013-05-29 21:22:00,79.9,67.5,30.07,North,0,11.0,14.0,66,0.00,,,0.00,meteohub,2013-05-30 01:22:00,
2013-05-29 21:27:00,79.7,67.3,30.07,North,0,8.0,14.0,66,0.00,,,0.00,meteohub,2013-05-30 01:27:00,
2013-05-29 21:32:00,79.7,67.8,30.08,NE,45,6.0,12.0,67,0.00,,,0.00,meteohub,2013-05-30 01:32:00,
2013-05-29 21:37:00,79.5,67.6,30.07,NW,315,7.0,12.0,67,0.00,,,0.00,meteohub,2013-05-30 01:37:00,
2013-05-29 21:42:00,79.5,68.0,30.08,NW,315,4.0,12.0,68,0.00,,,0.00,meteohub,2013-05-30 01:42:00,
2013-05-29 21:47:00,79.3,68.4,30.08,NE,45,8.0,12.0,69,0.00,,,0.00,meteohub,2013-05-30 01:47:00,
2013-05-29 21:52:00,79.3,68.7,30.08,North,0,7.0,12.0,70,0.00,,,0.00,meteohub,2013-05-30 01:52:00,
2013-05-29 21:57:00,79.3,69.1,30.08,NW,315,4.0,15.0,71,0.00,,,0.00,meteohub,2013-05-30 01:57:00,
2013-05-29 22:03:00,79.2,69.3,30.07,NW,315,13.0,15.0,72,0.00,,,0.00,meteohub,2013-05-30 02:03:00,
2013-05-29 22:08:00,79.2,69.3,30.08,WNW,293,13.0,16.0,72,0.00,,,0.00,meteohub,2013-05-30 02:08:00,
2013-05-29 22:13:00,79.2,69.3,30.08,North,0,6.0,16.0,72,0.00,,,0.00,meteohub,2013-05-30 02:13:00,
2013-05-29 22:18:00,79.2,69.8,30.08,North,0,11.0,16.0,73,0.00,,,0.00,meteohub,2013-05-30 02:18:00,
2013-05-29 22:23:00,79.2,69.8,30.07,North,0,11.0,13.0,73,0.00,,,0.00,meteohub,2013-05-30 02:23:00,
2013-05-29 22:28:00,79.2,69.8,30.08,North,0,8.0,13.0,73,0.00,,,0.00,meteohub,2013-05-30 02:28:00,
2013-05-29 22:33:00,79.2,70.2,30.08,North,0,6.0,13.0,74,0.00,,,0.00,meteohub,2013-05-30 02:33:00,
2013-05-29 22:38:00,79.0,70.3,30.08,North,0,9.0,13.0,75,0.00,,,0.00,meteohub,2013-05-30 02:38:00,
2013-05-29 22:43:00,79.0,70.7,30.08,North,0,11.0,13.0,76,0.00,,,0.00,meteohub,2013-05-30 02:43:00,
2013-05-29 22:48:00,79.0,70.7,30.08,East,90,8.0,14.0,76,0.00,,,0.00,meteohub,2013-05-30 02:48:00,
2013-05-29 22:53:00,79.0,70.7,30.07,North,0,5.0,16.0,76,0.00,,,0.00,meteohub,2013-05-30 02:53:00,
2013-05-29 22:58:00,79.0,70.7,30.07,NW,315,5.0,16.0,76,0.00,,,0.00,meteohub,2013-05-30 02:58:00,
2013-05-29 23:03:00,78.8,70.5,30.08,North,0,10.0,16.0,76,0.00,,,0.00,meteohub,2013-05-30 03:03:00,
2013-05-29 23:09:00,78.8,71.1,30.07,NW,315,4.0,11.0,77,0.00,,,0.00,meteohub,2013-05-30 03:09:00,
2013-05-29 23:14:00,78.8,71.1,30.08,NW,315,13.0,13.0,77,0.00,,,0.00,meteohub,2013-05-30 03:14:00,
2013-05-29 23:19:00,78.8,71.1,30.09,NW,315,6.0,11.0,77,0.00,,,0.00,meteohub,2013-05-30 03:19:00,
2013-05-29 23:24:00,78.6,71.2,30.08,North,0,5.0,13.0,78,0.00,,,0.00,meteohub,2013-05-30 03:24:00,
2013-05-29 23:29:00,78.6,71.2,30.08,North,0,10.0,13.0,78,0.00,,,0.00,meteohub,2013-05-30 03:29:00,
2013-05-29 23:34:00,78.6,71.2,30.08,North,0,9.0,11.0,78,0.00,,,0.00,meteohub,2013-05-30 03:34:00,
2013-05-29 23:39:00,78.6,71.6,30.08,NW,315,5.0,11.0,79,0.00,,,0.00,meteohub,2013-05-30 03:39:00,
2013-05-29 23:44:00,78.6,71.6,30.08,North,0,8.0,11.0,79,0.00,,,0.00,meteohub,2013-05-30 03:44:00,
2013-05-29 23:49:00,78.6,71.6,30.08,North,0,8.0,10.0,79,0.00,,,0.00,meteohub,2013-05-30 03:49:00,
2013-05-29 23:54:00,78.6,72.0,30.08,NE,45,8.0,11.0,80,0.00,,,0.00,meteohub,2013-05-30 03:54:00,
2013-05-29 23:59:00,78.6,72.0,30.08,North,0,10.0,11.0,80,0.00,,,0.00,meteohub,2013-05-30 03:59:00,